Regional Weather Roundup
Issued by NWS

Home | Current Version | Previous Version | Text Only | Print | Product List | Glossary Off
Versions: 1 2 3 4 5 6 7 8 9 10 11 12 13 14 15 16 17 18 19 20 21 22 23 24 25 26 27 28 29 30 31 32 33 34 35 36 37 38 39 40 41 42 43 44 45 46 47 48 49 50

000
ASUS43 KLOT 252009
RWRIL

ILLINOIS REGIONAL WEATHER ROUNDUP
NATIONAL WEATHER SERVICE CHICAGO/ROMEOVILLE IL
300 PM CDT THU AUG 25 2016

NOTE: "FAIR" INDICATES FEW OR NO CLOUDS BELOW 12,000 FEET WITH NO
SIGNIFICANT WEATHER AND/OR OBSTRUCTIONS TO VISIBILITY.

* THESE STATIONS ARE NOT UNDER NWS QUALITY CONTROL. THEY ALSO MAY NOT
  REPORT WEATHER SUCH AS PRECIPITATION OR FOG.

ILZ001-002-007-009-015-016-024-252100-
NORTHWEST ILLINOIS

CITY           SKY/WX    TMP DP  RH WIND       PRES   REMARKS
MOLINE         NOT AVBL
STERLING*      CLOUDY    77  66  68 W8        30.07S
SAVANNA*       CLOUDY    77  62  58 W5        30.05F
$$

ILZ003-004-008-010-011-017-018-252100-
NORTH CENTRAL ILLINOIS

CITY           SKY/WX    TMP DP  RH WIND       PRES   REMARKS
ROCKFORD       CLOUDY    79  64  60 W7        30.06F HX  81
FREEPORT*      CLOUDY    76  63  63 W5        30.08S
ROCHELLE*      CLOUDY    77  65  65 NW6       30.06F
DE KALB*       PTSUNNY   78  65  66 NW5       30.07R
$$

ILZ005-006-012>014-019>023-252100-
NORTHEAST ILLINOIS

CITY           SKY/WX    TMP DP  RH WIND       PRES   REMARKS
CHICAGO-OHARE  PTSUNNY   83  63  50 NW5       30.02F HX  84
CHICAGO-MIDWAY PTSUNNY   85  66  53 NW6       30.02F HX  87
AURORA         CLOUDY    82  67  60 W6        30.05S HX  84
LANSING*       PTSUNNY   83  73  73 CALM      30.03F HX  88
JOLIET*        CLOUDY    83  69  62 W6        30.04S HX  87
WAUKEGAN       CLOUDY    81  64  56 VRB5      30.02F HX  82
DUPAGE AIRPORT CLOUDY    80  62  54 NW9       30.04S HX  81
KANKAKEE*      PTSUNNY   82  71  68 W6        30.05F HX  86
WHEELING       CLOUDY    83  62  49 N7        30.03F HX  84
MORRIS*        SUNNY     82  68  61 NW5       30.04S HX  85
ROMEOVILLE*    MOSUNNY   82  71  70 W6        30.04S HX  85
NORTHERLY ISL    N/A     75  67  76 E1          N/A
$$

LMZ740>746-252100-
SOUTHERN LAKE MICHIGAN

STATION/POSITION SKY/WX   TEMP    WIND        PRES    VSBY  WAVE
                          AIR SEA DIR/SP/G                  HT/PER
                          (F)     (DEG/KT/KT) (MB)    (MI)  (FT/S)
SOUTHERN BUOY              73 75  350/  8/ 10 1016.0F         1/ 3
WILMETTE HARBOR            73 67  110/  6/  6   N/A           1
HARRISON CRIB              74      80/  7/  7   N/A
BURNHAM HARBOR             75     130/  3/  4   N/A
CALUMET HARBOR             73      60/  5/  6 1016.9F
BURNS HARBOR               74     360/  3/  4 1017.9S
MICHIGAN CITY              75     260/  5/  5   N/A
MICHIGAN CITY 6N           74 74  310/  4/  6   N/A           1/ 3
ST. JOSEPH                 74 75  300/  6/  8 1016.9S         2/ 4
$$

ILZ025>027-034>036-040-047-049-050-058-095>099-252100-
WEST-CENTRAL ILLINOIS

CITY           SKY/WX    TMP DP  RH WIND       PRES   REMARKS
QUINCY         PTSUNNY   81  73  76 N7        30.06S HX  86
GALESBURG*     LGT RAIN  76  70  81 NW7       30.07S
MACOMB*        CLOUDY    78  71  79 W3        30.10R HX  81
JACKSONVILLE*  PTSUNNY   84  71  65 W5        30.05F HX  89
PITTSFIELD*    MOSUNNY   85  71  64 S5        30.07S HX  90
$$

ILZ028>032-037-038-041>044-048-051>054-059>061-252100-
CENTRAL ILLINOIS

CITY           SKY/WX    TMP DP  RH WIND       PRES   REMARKS
PONTIAC        CLOUDY    82  74  78 W7        30.05F HX  88
BLOOMINGTON    MOSUNNY   82  70  66 SW6       30.08S HX  86
DECATUR        MOSUNNY   86  71  60 SW12      30.06F HX  91
PEORIA         CLOUDY    80  74  81 W5        30.05F HX  85
LACON*         CLOUDY    80  70  72 W5        30.04F HX  83
LINCOLN*       PTSUNNY   83  74  73 CALM      30.05F HX  90
SPRINGFIELD    CLOUDY    86  71  60 W5        30.05F HX  91
TAYLORVILLE    PTSUNNY   85  72  66 CALM      30.06F HX  91
$$

ILZ033-039-045-046-055>057-062-063-252100-
EAST-CENTRAL ILLINOIS

CITY           SKY/WX    TMP DP  RH WIND       PRES   REMARKS
CHAMPAIGN      PTSUNNY   83  73  72 SW7       30.06F HX  89
RANTOUL*       CLOUDY    83  74  73 W6        30.07S HX  90
MATTOON        MOSUNNY   86  72  62 S6        30.06F HX  92
PARIS*         MOSUNNY   87  73  63 SW6       30.07F HX  94
$$

ILZ079-100>102-252100-
SOUTHWEST ILLINOIS

CITY           SKY/WX    TMP DP  RH WIND       PRES   REMARKS
ALTON          PTSUNNY   86  72  62 W5        30.05F HX  92
BELLEVILLE     MOSUNNY   92  72  50 S9        30.03F HX 100
CAHOKIA*       CLOUDY    92  70  48 VRB7      30.04F HX  97
SPARTA*        PTSUNNY   89  75  62 SW10      30.06F HX 100
$$

ILZ064>066-069>071-074>076-080>082-084>086-088>090-092>094-252100-
SOUTH-CENTRAL ILLINOIS

CITY           SKY/WX    TMP DP  RH WIND       PRES   REMARKS
CARBONDALE     MOSUNNY   89  72  56 SW10      30.07F HX  96
CAIRO*         SUNNY     90  75  61 SW3       30.07F HX 100
EFFINGHAM*     CLOUDY    88  78  72 CALM      30.07F HX 101
MARION         MOSUNNY   91  73  55 S9        30.09F HX 100
MT. VERNON     MOSUNNY   91  73  55 S9        30.06F HX 100
CENTRALIA*     PTSUNNY   90  77  65 S5        30.05S HX 103
SALEM*         MOSUNNY   89  74  60 S9        30.06S HX  98
$$

ILZ067-068-072-073-078-083-087-091-252100-
SOUTHEAST ILLINOIS

CITY           SKY/WX    TMP DP  RH WIND       PRES   REMARKS
LAWRENCEVILLE  PTSUNNY   89  74  60 SW8       30.06F HX  98
FLORA*         MOSUNNY   91  77  64 SW7       30.06F HX 104
FAIRFIELD*     PTSUNNY   88  76  65 S7        30.05F HX  99
HARRISBURG*    MOSUNNY   91  74  57 SW8       30.07F HX 101
ROBINSON*      MOSUNNY   89  78  70 W5        30.06F HX 102
CARMI*         MOSUNNY   91  75  59 SW9       30.06F HX 101
$$

ABBREVIATIONS USED IN REMARKS
   TC - TEMPERATURE IN CELSIUS
  WCI - WIND CHILL INDEX
   HX - HEAT INDEX
  VSB - VISIBILITY
$$





USA.gov is the U.S. government's official web portal to all federal, state and local government web resources and services.